TimeMST,TemperatureF,Dew PointF,Humidity,Sea Level PressureIn,VisibilityMPH,Wind Direction,Wind SpeedMPH,Gust SpeedMPH,PrecipitationIn,Events,Conditions,WindDirDegrees,DateUTC
12:57 AM,32.0,23.0,69,30.15,10.0,Calm,Calm,-,N/A,,Clear,0,2011-10-21 07:57:00
1:57 AM,32.0,23.0,69,30.14,10.0,Calm,Calm,-,N/A,,Clear,0,2011-10-21 08:57:00
2:57 AM,30.9,21.9,69,30.14,10.0,Calm,Calm,-,N/A,,Clear,0,2011-10-21 09:57:00
3:57 AM,28.9,21.9,75,30.15,10.0,Calm,Calm,-,N/A,,Clear,0,2011-10-21 10:57:00
4:57 AM,28.0,21.9,78,30.18,10.0,Calm,Calm,-,N/A,,Clear,0,2011-10-21 11:57:00
5:57 AM,28.0,21.9,78,30.22,10.0,Calm,Calm,-,N/A,,Clear,0,2011-10-21 12:57:00
6:57 AM,32.0,24.1,73,30.24,10.0,Calm,Calm,-,N/A,,Clear,0,2011-10-21 13:57:00
7:57 AM,43.0,30.0,60,30.22,10.0,Calm,Calm,-,N/A,,Clear,0,2011-10-21 14:57:00
8:57 AM,59.0,30.0,33,30.18,10.0,WSW,6.9,-,N/A,,Clear,240,2011-10-21 15:57:00
9:57 AM,60.1,28.0,30,30.20,10.0,South,9.2,-,N/A,,Clear,190,2011-10-21 16:57:00
10:57 AM,62.1,26.1,25,30.21,10.0,SW,10.4,-,N/A,,Clear,220,2011-10-21 17:57:00
11:57 AM,63.0,25.0,24,30.20,10.0,WSW,9.2,-,N/A,,Clear,240,2011-10-21 18:57:00
12:57 PM,64.9,21.0,19,30.18,10.0,WSW,10.4,20.7,N/A,,Clear,250,2011-10-21 19:57:00
1:57 PM,64.9,18.0,16,30.16,10.0,SW,10.4,-,N/A,,Clear,230,2011-10-21 20:57:00
2:57 PM,66.0,19.0,17,30.15,10.0,WSW,10.4,-,N/A,,Clear,250,2011-10-21 21:57:00
3:57 PM,64.9,18.0,16,30.16,10.0,SSW,9.2,-,N/A,,Clear,210,2011-10-21 22:57:00
4:57 PM,64.0,17.1,16,30.18,10.0,WSW,6.9,-,N/A,,Clear,250,2011-10-21 23:57:00
5:57 PM,54.0,23.0,30,30.22,10.0,Calm,Calm,-,N/A,,Clear,0,2011-10-22 00:57:00
6:57 PM,46.9,21.9,37,30.25,10.0,Calm,Calm,-,N/A,,Clear,0,2011-10-22 01:57:00
7:57 PM,42.1,21.9,45,30.23,10.0,Calm,Calm,-,N/A,,Clear,0,2011-10-22 02:57:00
8:57 PM,39.9,21.0,47,30.18,10.0,Calm,Calm,-,N/A,,Clear,0,2011-10-22 03:57:00
9:57 PM,36.0,21.0,55,30.20,10.0,Calm,Calm,-,N/A,,Clear,0,2011-10-22 04:57:00
10:57 PM,34.0,19.9,56,30.20,10.0,Calm,Calm,-,N/A,,Clear,0,2011-10-22 05:57:00
11:57 PM,33.1,19.9,59,30.19,10.0,Calm,Calm,-,N/A,,Clear,0,2011-10-22 06:57:00